Regional Weather Roundup
Issued by NWS

Home | Current Version | Previous Version | Text Only | Print | Product List | Glossary On
Versions: 1 2 3 4 5 6 7 8 9 10 11 12 13 14 15 16 17 18 19 20 21 22 23 24 25 26 27 28 29 30 31 32 33 34 35 36 37 38 39 40 41 42 43 44 45 46 47 48 49 50
653
ASUS46 KSTO 270115
RWRCA

NORTHERN AND CENTRAL CA REGIONAL WEATHER ROUNDUP
NATIONAL WEATHER SERVICE SACRAMENTO CA
600 PM PDT TUE JUL 26 2016

NOTE: FAIR INDICATES FEW OR NO CLOUDS BELOW 12,000 FEET WITH NO
SIGNIFICANT WEATHER AND/OR OBSTRUCTIONS TO VISIBILITY.

CAZ001-003-270200-
NORTHWEST AREA

CITY           SKY/WX    TMP DP  RH WIND       PRES   REMARKS
CRESCENT CITY  SUNNY     61  54  77 NW8       29.92F
UKIAH          SUNNY    102  45  14 W6        29.81S HX  98
$$

CAZ006-505>513-270200-
BAY AREA

CITY           SKY/WX    TMP DP  RH WIND       PRES   REMARKS
SANTA ROSA     SUNNY     92  51  24 S10       29.81S
SAN RAFAEL     N/A       89  MM  MM MISG
NAPA           SUNNY     85  56  37 SW7       29.81S
CONCORD        SUNNY    102  39  11 NW12      29.78F HX  97
OAKLAND CITY   N/A       77  MM  MM MISG
OAKLAND        MOSUNNY   77  54  44 NW16      29.83S
SAN FRAN CITY  N/A       68  MM  54 MISG
SAN FRAN ARPT  MOSUNNY   74  49  41 W22       29.82F
LIVERMORE      SUNNY    102  44  14 W13       29.79F HX  98
HAYWARD        SUNNY     88  45  22 NW9       29.81F
REDWOOD CITY   N/A       86  MM  38 MISG
MOFFETT ARPT   SUNNY     85  48  27 N8        29.82S
SAN JOSE ARPT  PTSUNNY   89  52  28 W9        29.81S
$$
CAZ034-037-514>518-270200-
CENTRAL COAST

CITY           SKY/WX    TMP DP  RH WIND       PRES   REMARKS
WATSONVILLE    MOSUNNY   62  53  72 S8        29.87F
SALINAS        SUNNY     68  53  58 W13       29.86S
MONTEREY       CLOUDY    57  53  86 N3        29.88F
SAN LUIS OBISP SUNNY     81  54  39 NW6       29.87S
SANTA MARIA    SUNNY     72  56  57 W7        29.88F
$$
CAZ015-016-270200-
NORTHERN SACRAMENTO VALLEY

CITY           SKY/WX    TMP DP  RH WIND       PRES   REMARKS
REDDING        SUNNY    107  46  13 S13       29.76S HX 103
RED BLUFF      SUNNY    107  41  10 S12       29.77F HX 101
OROVILLE       SUNNY    102  52  18 SW5       29.79F HX  99
$$
CAZ016>018-270200-
SOUTHERN SACRAMENTO VALLEY

CITY           SKY/WX    TMP DP  RH WIND       PRES   REMARKS
AUBURN         SUNNY     99  36  11 SW8       29.90F HX  93
BEALE AFB      SUNNY    103  45  14 S6        29.76F HX  99
LINCOLN        FAIR     104  37  10 W3        29.77F HX  98
MARYSVILLE     SUNNY    102  51  18 SW7       29.77F HX  99
SAC INTL ARPT  SUNNY    102  49  16 S6        29.76F HX  99
MATHER AIRPORT SUNNY    104  36   9 NW3       29.77F HX  98
DOWNTOWN SAC   N/A      107  MM  MM MISG
SAC EXEC ARPT  SUNNY    104  41  11 VRB3      29.77F HX  99
VACAVILLE      SUNNY    105  39  10 SW10      29.79F HX  99
TRAVIS AFB     SUNNY    103  34   9 W14       29.76F HX  96
$$
CAZ019>021-270200-
SAN JOAQUIN VALLEY

CITY           SKY/WX    TMP DP  RH WIND       PRES   REMARKS
STOCKTON       SUNNY    104  39  10 NW7       29.77F HX  98
MODESTO        SUNNY    104  50  16 N8        29.77S HX 101
MERCED         SUNNY    103  46  14 NW12      29.76F HX  99
LEMOORE        MOSUNNY  104  45  13 N10       29.77S HX 100
FRESNO         MOSUNNY  105  45  13 NW12      29.78S HX 101
HANFORD        PTSUNNY  104  50  16 NW7       29.77F HX 101
PORTERVILLE    SUNNY    103  56  21 NW9       29.78F HX 102
BAKERSFIELD    SUNNY    105  45  13 N9        29.78S HX 101
$$
CAZ011-012-071-270200-
NORTHERN MOUNTAINS

CITY           SKY/WX    TMP DP  RH WIND       PRES   REMARKS
YREKA          SUNNY     98  45  16 N15       29.96F HX  94
MOUNT SHASTA   SUNNY     91  56  30 MISG      30.01F
ALTURAS        PTSUNNY   95  36  12 W9        30.06S HX  90
$$
CAZ011-012-071-270200-
SIERRA NEVADA MTNS

CITY           SKY/WX    TMP DP  RH WIND       PRES   REMARKS
TRUCKEE        SUNNY     88  23   9 SW9G16    30.22S
TAHOE VLY ARPT SUNNY     84  26  12 VRB7      30.24S
MAMMOTH LAKES    N/A     88  29  12 W16       30.27S
$$




USA.gov is the U.S. government's official web portal to all federal, state and local government web resources and services.